Location: *
(37.5724°S, 58.0067°E)
Time: 10:40:11
(UTC+00:00)

Cosmos 1726 - Visible Passes

Search period start: 17 January 2021 00:00
Search period end: 27 January 2021 00:00
Orbit: 482 x 497 km, 82.5° (Epoch: 16 January)

Date Brightness Start Highest point End Pass type
(mag) Time Alt. Az. Time Alt. Az. Time Alt. Az.
18 Jan 3.1 00:32:27 10° S 00:36:06 52° E 00:39:42 10° NNE visible
19 Jan 4.1 00:09:29 10° SSE 00:12:52 32° ESE 00:16:12 10° NE visible
19 Jan 4.8 23:46:44 10° SSE 23:49:36 21° ESE 23:52:27 10° NE visible
20 Jan 5.2 23:24:20 10° SE 23:26:18 14° ESE 23:28:15 10° ENE visible
22 Jan 2.3 00:34:48 10° SSW 00:38:25 49° W 00:42:00 10° N visible
23 Jan 2.0 00:11:31 10° S 00:15:16 83° W 00:18:58 10° N visible
23 Jan 2.7 23:48:22 10° S 23:52:03 59° E 23:55:43 10° NNE visible
24 Jan 3.7 23:25:22 10° S 23:28:50 36° ESE 23:32:15 10° NNE visible
25 Jan 4.4 23:02:32 10° SSE 23:05:34 23° ESE 23:08:34 10° NE visible
26 Jan 3.7 00:37:59 10° SW 00:40:32 18° W 00:43:05 10° NW visible
26 Jan 5.0 22:40:01 10° SE 22:42:15 15° ESE 22:44:29 10° ENE visible
